カタログに戻る

DELTA 1 DEB

運用中PO
NORAD 7890·DEBRIS·🇺🇸 United States

打ち上げ Jul 23, 1972 から Vandenberg Space Force Base

Loading…

次のパス (今後24時間)

TLE

最新Source: Space-Track

元期: Sep 14, 2026, 14:38 UTC

1 07890U 72058BG  26257.60987282  .00009465  00000-0  86119-3 0  9992
2 07890  98.8384  18.8628 0091591  99.3426 261.8160 14.92262272653787

AllMySatでDELTA 1 DEBをリアルタイム追跡

Download on the App Store